Content
SEND FEEDBACK

Daily
Averages
Monthly
Summary
Mexico

CANCUN, QUINTANA ROO


Home > North America > Mexico > Quintana Roo
Elevation: 30 feet     Latitude: 21 09N     Longitude: 086 49W

WEATHER
 
SELECT A DAY
Number of Records: 166,321;   Date Range: 1/1/95 - 10/19/14
 
SHARE

PRINT THIS DATA

[ ← Previous Day ]
WEATHER ALMANAC - NOVEMBER 5, 2013
[ Next Day → ]
[ °C ]   °F
Weather ElementAverageHighLow
Temperature78.3 °F84.2 °F (10:49 am)73.4 °F (2:42 am)
Dewpoint72.8 °F73.4 °F (1:31 am)71.6 °F (1:51 am)
Humidity83.8 %100 % (11:46 pm)66 % (10:49 am)
Barometer29.93 in30.01 in (9:18 am)29.88 in (3:44 pm)
Wind Speed6.4 mph13.8 mph (9:42 am)
Weather ElementAverage
Visibility6.2 mi
Wind DirectionESE (105.2 °)

Weather ElementTotal
Precipitation---
Cooling Degree Days13.8 (Base 65)
Growing Degree Days28.8 (Base 50)
Averaged from 25 records on November 5, 2013
WEATHER CONDITIONS BREAKOUT
WIND DIRECTION BREAKOUT
WEATHER BY HOUR - NOVEMBER 5, 2013
[ °C ]   °F
Local TimeTemperatureDewpointHumidityBarometerVisibilityWind DirectionWind SpeedGust SpeedPrecipitationEventsConditions
1:31 AM75.2 °F73.4 °F94 %29.92 in4.0 miESE (120°)9.2 mphRainRain
1:51 AM75.2 °F71.6 °F89 %29.92 in4.0 miSE (130°)9.2 mphRainLight Rain
2:42 AM73.4 °F71.6 °F94 %29.92 in5.0 miCalmRainLight Rain
3:44 AM75.2 °F73.4 °F94 %29.92 in6.0 miENE (60°)5.8 mphMostly Cloudy
4:47 AM75.2 °F71.6 °F89 %29.92 in6.0 miEast (90°)6.9 mphScattered Clouds
5:45 AM77.0 °F73.4 °F89 %29.93 in6.0 miEast (90°)4.6 mphMostly Cloudy
6:42 AM77.0 °F73.4 °F89 %29.94 in6.0 miEast (80°)9.2 mphScattered Clouds
7:42 AM78.8 °F73.4 °F83 %29.97 in6.0 miEast (80°)4.6 mphMostly Cloudy
8:46 AM82.4 °F73.4 °F74 %29.98 in7.0 miEast (80°)8.1 mphMostly Cloudy
9:18 AM73.4 °F71.6 °F94 %30.01 in1.0 miENE (60°)11.5 mphRain-ThunderstormHeavy Thunderstorms and Rain
9:42 AM82.4 °F73.4 °F74 %29.98 in7.0 miENE (60°)13.8 mphMostly Cloudy
10:49 AM84.2 °F71.6 °F66 %29.96 in7.0 miEast (80°)12.7 mphMostly Cloudy
11:45 AM84.2 °F73.4 °F70 %29.95 in7.0 miSE (140°)8.1 mphMostly Cloudy
12:48 PM82.4 °F71.6 °F70 %29.90 in7.0 miENE (70°)11.5 mphMostly Cloudy
1:40 PM82.4 °F71.6 °F70 %29.89 in7.0 miNE (50°)5.8 mphMostly Cloudy
2:42 PM82.4 °F71.6 °F70 %29.89 in7.0 miENE (60°)6.9 mphMostly Cloudy
3:44 PM82.4 °F73.4 °F74 %29.88 in7.0 miNE (40°)4.6 mphMostly Cloudy
4:42 PM80.6 °F73.4 °F79 %29.89 in7.0 miNNE (20°)2.3 mphMostly Cloudy
5:41 PM78.8 °F73.4 °F83 %29.91 in7.0 miNNE (20°)3.5 mphMostly Cloudy
6:41 PM78.8 °F71.6 °F78 %29.91 in7.0 miNNE (20°)2.3 mphMostly Cloudy
7:47 PM77.0 °F73.4 °F89 %29.93 in7.0 miNNW (330°)3.5 mphMostly Cloudy
8:47 PM75.2 °F73.4 °F94 %29.94 in7.0 miNNW (330°)3.5 mphMostly Cloudy
9:48 PM75.2 °F73.4 °F94 %29.93 in7.0 miCalmMostly Cloudy
10:47 PM75.2 °F73.4 °F94 %29.92 in7.0 miNW (310°)5.8 mphMostly Cloudy
11:46 PM73.4 °F73.4 °F100 %29.89 in7.0 miNW (310°)5.8 mphMostly Cloudy
Hourly data recorded from MMUN, located miles away from Cancun, Quintana Roo







STORIES FROM OUR PARTNERS